Le nostre stazioni meteo in Italia

Pubblicità
Il mio iltempo24.it
Lentran, Gran Bretagna (99125): Temperatura & dewpoint: 14.06.2019 23:00:00 - 20.06.2019 23:00:00 (BST)Lentran, Gran Bretagna (99125): precipitazioni: 14.06.2019 23:00:00 - 20.06.2019 23:00:00 (BST)
Data & Tempo tt [°C] td [°C] rr [mm]
20.06.2019 23:00:00 - - -
20.06.2019 22:00:00 9,5 5,5 0,0
20.06.2019 21:00:00 10,6 5,2 0,0
20.06.2019 20:00:00 11,0 5,7 0,0
20.06.2019 19:00:00 11,1 5,3 0,0
20.06.2019 18:00:00 12,5 6,1 0,0
20.06.2019 17:00:00 14,4 5,8 0,0
20.06.2019 16:00:00 14,8 7,5 0,0
20.06.2019 15:00:00 16,1 8,7 0,0
20.06.2019 14:00:00 13,4 7,3 0,0
20.06.2019 13:00:00 10,9 7,3 0,2
20.06.2019 12:00:00 12,6 7,9 0,0
20.06.2019 11:00:00 12,4 6,8 0,0
20.06.2019 10:00:00 13,0 6,4 0,0
20.06.2019 09:00:00 13,0 6,7 0,0
20.06.2019 08:00:00 11,6 6,4 0,0
20.06.2019 07:00:00 9,5 6,7 0,0
20.06.2019 06:00:00 7,4 5,7 0,0
20.06.2019 05:00:00 7,3 5,4 0,0
20.06.2019 04:00:00 8,6 5,9 0,0
20.06.2019 03:00:00 8,4 6,4 0,0
20.06.2019 02:00:00 8,7 6,6 0,0
20.06.2019 01:00:00 8,0 6,1 0,0
20.06.2019 00:00:00 9,0 6,7 0,0
19.06.2019 23:00:00 9,4 6,6 0,0
19.06.2019 22:00:00 11,4 7,4 0,0
19.06.2019 21:00:00 11,9 6,8 0,0
19.06.2019 20:00:00 12,6 6,4 0,0
19.06.2019 19:00:00 15,2 7,7 0,0
19.06.2019 18:00:00 14,3 7,1 0,0
19.06.2019 17:00:00 14,9 6,7 0,0
19.06.2019 16:00:00 15,6 7,4 0,0
19.06.2019 15:00:00 16,2 9,7 0,0
19.06.2019 14:00:00 13,4 8,8 0,0
19.06.2019 13:00:00 15,5 9,0 0,0
19.06.2019 12:00:00 15,0 8,8 0,0
19.06.2019 11:00:00 14,1 7,7 0,0
19.06.2019 10:00:00 13,3 7,4 0,0
19.06.2019 09:00:00 12,9 8,4 0,0
19.06.2019 08:00:00 11,8 8,2 0,0
19.06.2019 07:00:00 11,2 7,3 0,0
19.06.2019 06:00:00 10,8 7,3 0,0
19.06.2019 05:00:00 9,9 7,6 0,0
19.06.2019 04:00:00 9,7 7,5 0,0
19.06.2019 03:00:00 9,7 7,5 0,0
19.06.2019 02:00:00 10,2 8,2 0,0
19.06.2019 01:00:00 10,2 8,2 0,0
19.06.2019 00:00:00 10,7 8,2 0,0
18.06.2019 23:00:00 11,0 8,1 0,0
18.06.2019 22:00:00 11,3 8,1 0,0
18.06.2019 21:00:00 12,1 7,8 0,0
18.06.2019 20:00:00 13,2 8,0 0,0
18.06.2019 19:00:00 13,5 8,6 0,0
18.06.2019 18:00:00 13,3 7,9 0,0
18.06.2019 17:00:00 14,4 7,7 0,0
18.06.2019 16:00:00 16,1 8,8 0,0
18.06.2019 15:00:00 15,3 8,0 0,0
18.06.2019 14:00:00 16,7 8,4 0,0
18.06.2019 13:00:00 15,5 8,9 0,0
18.06.2019 12:00:00 15,5 8,8 0,0
18.06.2019 11:00:00 14,6 9,1 0,0
18.06.2019 10:00:00 14,5 8,9 0,0
18.06.2019 09:00:00 12,1 8,1 0,0
18.06.2019 08:00:00 10,7 6,8 0,0
18.06.2019 07:00:00 11,1 7,0 0,0
18.06.2019 06:00:00 10,1 6,6 0,0
18.06.2019 05:00:00 10,0 7,6 0,0
18.06.2019 04:00:00 9,9 7,2 0,0
18.06.2019 03:00:00 9,1 6,7 0,0
18.06.2019 02:00:00 9,8 7,1 0,0
18.06.2019 01:00:00 9,7 7,1 0,0
18.06.2019 00:00:00 9,4 7,0 0,0
17.06.2019 23:00:00 10,2 7,3 0,0
17.06.2019 22:00:00 9,9 7,2 0,0
17.06.2019 21:00:00 11,3 9,4 0,0
17.06.2019 20:00:00 11,6 8,1 0,0
17.06.2019 19:00:00 11,8 9,7 0,0
17.06.2019 18:00:00 12,4 10,0 0,4
17.06.2019 17:00:00 12,6 9,5 0,8
17.06.2019 16:00:00 13,6 9,2 0,4
17.06.2019 15:00:00 15,1 8,8 0,0
17.06.2019 14:00:00 15,9 7,7 0,0
17.06.2019 13:00:00 14,6 7,8 0,0
17.06.2019 12:00:00 14,1 8,4 0,0
17.06.2019 11:00:00 14,6 8,1 0,0
17.06.2019 10:00:00 13,8 9,8 0,0
17.06.2019 09:00:00 13,1 10,1 0,0
17.06.2019 08:00:00 11,3 9,4 0,0
17.06.2019 07:00:00 10,5 9,7 0,0
17.06.2019 06:00:00 9,4 9,3 0,2
17.06.2019 05:00:00 8,7 8,5 0,0
17.06.2019 04:00:00 8,9 8,5 0,0
17.06.2019 03:00:00 9,1 8,6 0,8
17.06.2019 02:00:00 9,7 8,6 0,6
17.06.2019 01:00:00 10,2 7,7 0,0
17.06.2019 00:00:00 11,2 7,5 0,0
16.06.2019 23:00:00 11,6 7,4 0,0
16.06.2019 22:00:00 12,0 7,0 0,0
16.06.2019 21:00:00 12,9 6,8 0,0
16.06.2019 20:00:00 14,1 6,4 0,0
16.06.2019 19:00:00 14,5 5,8 0,0
16.06.2019 18:00:00 16,3 7,1 0,0
16.06.2019 17:00:00 14,3 6,8 0,0
16.06.2019 16:00:00 14,3 7,9 0,0
16.06.2019 15:00:00 14,2 6,2 0,0
16.06.2019 14:00:00 15,5 6,7 0,0
16.06.2019 13:00:00 15,7 6,5 0,0
16.06.2019 12:00:00 15,8 7,6 0,0
16.06.2019 11:00:00 15,0 7,4 0,0
16.06.2019 10:00:00 13,4 6,5 0,0
16.06.2019 09:00:00 13,6 9,1 0,0
16.06.2019 08:00:00 11,0 8,5 0,0
16.06.2019 07:00:00 10,4 8,3 0,0
16.06.2019 06:00:00 9,1 8,1 0,0
16.06.2019 05:00:00 8,3 7,8 0,0
16.06.2019 04:00:00 8,9 8,5 0,0
16.06.2019 03:00:00 9,4 8,7 0,6
16.06.2019 02:00:00 9,7 8,5 2,0
16.06.2019 01:00:00 11,4 8,5 0,4
16.06.2019 00:00:00 11,9 8,6 0,0
15.06.2019 23:00:00 12,0 8,6 0,0
15.06.2019 22:00:00 13,9 8,5 0,0
15.06.2019 21:00:00 14,9 9,1 0,0
15.06.2019 20:00:00 14,4 9,9 0,0
15.06.2019 19:00:00 16,3 8,3 0,0
15.06.2019 18:00:00 16,5 7,4 0,0
15.06.2019 17:00:00 17,3 7,2 0,0
15.06.2019 16:00:00 16,6 6,8 0,0
15.06.2019 15:00:00 15,4 10,9 0,0
15.06.2019 14:00:00 16,6 11,9 0,0
15.06.2019 13:00:00 13,9 11,5 0,2
15.06.2019 12:00:00 14,6 10,3 0,0
15.06.2019 11:00:00 13,4 9,4 0,0
15.06.2019 10:00:00 13,2 9,0 0,0
15.06.2019 09:00:00 11,4 8,5 0,0
15.06.2019 08:00:00 11,1 8,0 0,0
15.06.2019 07:00:00 10,5 7,3 0,0
15.06.2019 06:00:00 9,2 7,0 0,0
15.06.2019 05:00:00 8,9 6,5 0,0
15.06.2019 04:00:00 7,8 6,2 0,0
15.06.2019 03:00:00 8,2 6,2 0,0
15.06.2019 02:00:00 8,5 6,4 0,0
15.06.2019 01:00:00 9,6 6,2 0,0
15.06.2019 00:00:00 9,5 5,6 0,0
14.06.2019 23:00:00 9,0 5,6 0,0

tt = Temperatura
td = dewpoint
rr = precipitazioni

Stazioni seguenti

WeatherPro
AMSI
MeteoEarth